RPA3438 KMSY-KEWR

Flight info

Callsign RPA3438
Flight time 2h 38m
Altitude 31000
Route GARTS MGM TWOUP Q22 BEARI QUART PHLBO4
Aircraft E75L/M-SDE3GILORVW/S

Departure

Time 2026-04-24 00:49
Airport Louis Armstrong New Orleans International Airport (KMSY)

Arrival

Time 2026-04-24 03:27
Airport Newark Liberty International Airport (KEWR)
Time Latitude Longitude Altitude Speed Heading
2026-04-24 00:19 29.99288 -90.25484 7 ft 0 kts 62°
2026-04-24 00:33 29.99287 -90.25484 7 ft 0 kts 62°
2026-04-24 00:33 29.99280 -90.25507 7 ft 4 kts 85°
2026-04-24 00:33 29.99288 -90.25532 7 ft 4 kts 147°
2026-04-24 00:34 29.99314 -90.25541 7 ft 4 kts 177°
2026-04-24 00:34 29.99327 -90.25541 6 ft 0 kts 183°
2026-04-24 00:41 29.99322 -90.25541 6 ft 1 kts 182°
2026-04-24 00:42 29.99311 -90.25542 7 ft 3 kts 182°
2026-04-24 00:42 29.99277 -90.25543 7 ft 7 kts 183°
2026-04-24 00:42 29.99223 -90.25539 8 ft 9 kts 150°
2026-04-24 00:42 29.99202 -90.25467 9 ft 12 kts 95°
2026-04-24 00:43 29.99193 -90.25354 8 ft 17 kts 95°
2026-04-24 00:43 29.99183 -90.25200 7 ft 21 kts 94°
2026-04-24 00:43 29.99177 -90.25083 8 ft 12 kts 81°
2026-04-24 00:43 29.99234 -90.25037 9 ft 11 kts 15°
2026-04-24 00:44 29.99312 -90.25013 9 ft 13 kts 15°
2026-04-24 00:44 29.99408 -90.24982 10 ft 16 kts 15°
2026-04-24 00:44 29.99514 -90.24948 12 ft 16 kts 16°
2026-04-24 00:44 29.99623 -90.24912 12 ft 18 kts 15°
2026-04-24 00:45 29.99754 -90.24870 8 ft 21 kts 15°
2026-04-24 00:45 29.99904 -90.24823 6 ft 22 kts 16°
2026-04-24 00:45 30.00032 -90.24782 3 ft 20 kts 16°
2026-04-24 00:45 30.00167 -90.24739 3 ft 18 kts 15°
2026-04-24 00:46 30.00277 -90.24701 3 ft 14 kts 27°
2026-04-24 00:46 30.00312 -90.24650 2 ft 0 kts 76°
2026-04-24 00:47 30.00313 -90.24649 2 ft 1 kts 78°
2026-04-24 00:47 30.00311 -90.24622 3 ft 5 kts 104°
2026-04-24 00:47 30.00289 -90.24567 3 ft 9 kts 147°
2026-04-24 00:48 30.00228 -90.24578 3 ft 13 kts 195°
2026-04-24 00:48 29.99932 -90.24672 5 ft 78 kts 195°
2026-04-24 00:48 29.99208 -90.24899 9 ft 137 kts 195°
2026-04-24 00:48 29.98136 -90.25235 210 ft 172 kts 193°
2026-04-24 00:49 29.96921 -90.25609 789 ft 189 kts 193°
2026-04-24 00:49 29.95606 -90.26024 1455 ft 200 kts 193°
2026-04-24 00:49 29.94262 -90.26420 2182 ft 201 kts 190°
2026-04-24 00:49 29.92888 -90.26896 2838 ft 211 kts 195°
2026-04-24 00:50 29.91459 -90.27427 3562 ft 224 kts 195°
2026-04-24 00:50 29.89884 -90.28002 3947 ft 251 kts 195°
2026-04-24 00:50 29.88167 -90.28610 4355 ft 267 kts 195°
2026-04-24 00:50 29.86341 -90.29236 3847 ft 275 kts 194°
2026-04-24 00:51 29.84586 -90.29845 4277 ft 264 kts 194°
2026-04-24 00:51 29.82779 -90.30473 3989 ft 277 kts 195°
2026-04-24 00:51 29.80974 -90.31096 4038 ft 259 kts 194°
2026-04-24 00:51 29.79203 -90.31712 4220 ft 273 kts 195°
2026-04-24 00:52 29.77361 -90.32347 3840 ft 272 kts 194°
2026-04-24 00:52 29.75561 -90.32950 3941 ft 271 kts 194°
2026-04-24 00:52 29.73765 -90.33548 3960 ft 266 kts 194°
2026-04-24 00:52 29.72043 -90.34134 4504 ft 258 kts 195°
2026-04-24 00:53 29.70360 -90.34721 5181 ft 267 kts 195°
2026-04-24 00:53 29.68586 -90.35290 6051 ft 269 kts 189°
2026-04-24 00:53 29.66722 -90.35318 6937 ft 271 kts 168°
2026-04-24 00:53 29.64948 -90.34486 7749 ft 276 kts 146°
2026-04-24 00:54 29.63677 -90.32868 8427 ft 283 kts 118°
2026-04-24 00:54 29.63195 -90.30666 9135 ft 290 kts 91°
2026-04-24 00:54 29.63604 -90.28389 9795 ft 296 kts 64°
2026-04-24 00:54 29.64744 -90.26402 10293 ft 306 kts 53°
2026-04-24 00:55 29.66176 -90.24471 10405 ft 328 kts 47°
2026-04-24 00:55 29.67821 -90.22549 10523 ft 347 kts 44°
2026-04-24 00:55 29.69541 -90.20571 11070 ft 351 kts 46°
2026-04-24 00:55 29.71173 -90.18502 11697 ft 351 kts 49°
2026-04-24 00:56 29.72739 -90.16302 12327 ft 353 kts 50°
2026-04-24 00:56 29.74293 -90.14099 12905 ft 357 kts 49°
2026-04-24 00:56 29.75344 -90.12633 13291 ft 359 kts 49°
2026-04-24 00:56 29.76950 -90.10406 13870 ft 362 kts 48°
2026-04-24 00:57 29.79140 -90.07486 14662 ft 367 kts 47°
2026-04-24 00:57 29.80251 -90.06007 15069 ft 369 kts 47°
2026-04-24 00:57 29.83627 -90.01459 16215 ft 376 kts 47°
2026-04-24 00:58 29.85347 -89.99147 16748 ft 380 kts 47°
2026-04-24 00:58 29.87085 -89.96840 17275 ft 383 kts 46°
2026-04-24 00:58 29.88852 -89.94538 17782 ft 386 kts 46°
2026-04-24 00:58 29.90660 -89.92194 18289 ft 389 kts 46°
2026-04-24 00:59 29.92474 -89.89863 18814 ft 391 kts 46°
2026-04-24 00:59 29.94284 -89.87513 19330 ft 394 kts 46°
2026-04-24 00:59 29.96106 -89.85134 19864 ft 397 kts 46°
2026-04-24 00:59 29.97949 -89.82742 20395 ft 400 kts 46°
2026-04-24 01:00 29.99786 -89.80368 20909 ft 402 kts 46°
2026-04-24 01:00 30.01653 -89.77946 21385 ft 406 kts 46°
2026-04-24 01:00 30.03549 -89.75520 21874 ft 408 kts 45°
2026-04-24 01:00 30.05452 -89.73092 22348 ft 410 kts 45°
2026-04-24 01:01 30.07385 -89.70643 22784 ft 413 kts 45°
2026-04-24 01:01 30.09334 -89.68207 23220 ft 415 kts 45°
2026-04-24 01:01 30.11290 -89.65768 23616 ft 418 kts 45°
2026-04-24 01:01 30.13288 -89.63278 24018 ft 421 kts 45°
2026-04-24 01:02 30.15296 -89.60793 24418 ft 423 kts 45°
2026-04-24 01:02 30.17272 -89.58347 24797 ft 425 kts 45°
2026-04-24 01:02 30.19267 -89.55868 25171 ft 428 kts 44°
2026-04-24 01:02 30.21306 -89.53347 25537 ft 430 kts 44°
2026-04-24 01:03 30.23354 -89.50833 26053 ft 428 kts 44°
2026-04-24 01:03 30.25387 -89.48310 26521 ft 428 kts 44°
2026-04-24 01:03 30.27406 -89.45802 26964 ft 427 kts 44°
2026-04-24 01:03 30.29453 -89.43268 27444 ft 426 kts 44°
2026-04-24 01:04 30.31452 -89.40800 27888 ft 425 kts 44°
2026-04-24 01:04 30.33477 -89.38304 28318 ft 424 kts 44°
2026-04-24 01:04 30.35495 -89.35828 28739 ft 424 kts 43°
2026-04-24 01:04 30.37536 -89.33344 29169 ft 423 kts 43°
2026-04-24 01:05 30.39581 -89.30859 29572 ft 422 kts 43°
2026-04-24 01:05 30.41583 -89.28433 29947 ft 422 kts 43°
2026-04-24 01:05 30.43621 -89.25977 30328 ft 421 kts 43°
2026-04-24 01:05 30.45631 -89.23563 30706 ft 420 kts 43°
2026-04-24 01:06 30.47680 -89.21095 31115 ft 416 kts 43°
2026-04-24 01:06 30.51807 -89.16244 31035 ft 436 kts 41°
2026-04-24 01:07 30.56242 -89.11236 31032 ft 445 kts 42°
2026-04-24 01:07 30.60583 -89.06200 31002 ft 443 kts 42°
2026-04-24 01:08 30.64909 -89.01157 31003 ft 444 kts 42°
2026-04-24 01:08 30.69280 -88.96085 31013 ft 443 kts 42°
2026-04-24 01:09 30.73665 -88.90984 31010 ft 443 kts 42°
2026-04-24 01:09 30.78003 -88.85932 31025 ft 443 kts 42°
2026-04-24 01:10 30.82353 -88.80855 31017 ft 443 kts 42°
2026-04-24 01:10 30.86714 -88.75770 31020 ft 443 kts 43°
2026-04-24 01:11 30.91082 -88.70660 31018 ft 444 kts 43°
2026-04-24 01:11 30.95434 -88.65559 31020 ft 443 kts 43°
2026-04-24 01:12 30.99779 -88.60471 31030 ft 444 kts 43°
2026-04-24 01:12 31.04135 -88.55353 31030 ft 443 kts 43°
2026-04-24 01:13 31.08471 -88.50250 31035 ft 443 kts 43°
2026-04-24 01:13 31.12263 -88.44575 31071 ft 448 kts 55°
2026-04-24 01:14 31.15550 -88.38388 31021 ft 446 kts 57°
2026-04-24 01:14 31.18760 -88.32255 31029 ft 447 kts 56°
2026-04-24 01:15 31.22036 -88.26075 31043 ft 446 kts 56°
2026-04-24 01:15 31.25303 -88.19906 31021 ft 446 kts 57°
2026-04-24 01:16 31.28496 -88.13842 31026 ft 446 kts 57°
2026-04-24 01:16 31.31750 -88.07660 31032 ft 446 kts 57°
2026-04-24 01:17 31.35026 -88.01437 31026 ft 446 kts 57°
2026-04-24 01:17 31.38260 -87.95269 31024 ft 445 kts 57°
2026-04-24 01:18 31.41475 -87.89129 31032 ft 445 kts 57°
2026-04-24 01:18 31.44728 -87.82909 31027 ft 445 kts 57°
2026-04-24 01:19 31.47957 -87.76724 31027 ft 445 kts 57°
2026-04-24 01:19 31.51188 -87.70528 31030 ft 445 kts 57°
2026-04-24 01:20 31.54436 -87.64288 31029 ft 445 kts 57°
2026-04-24 01:20 31.57659 -87.58090 31030 ft 445 kts 57°
2026-04-24 01:21 31.60868 -87.51904 31029 ft 445 kts 57°
2026-04-24 01:21 31.64018 -87.45814 31027 ft 445 kts 57°
2026-04-24 01:22 31.67239 -87.39592 31028 ft 445 kts 57°
2026-04-24 01:22 31.70428 -87.33420 31029 ft 445 kts 57°
2026-04-24 01:23 31.73624 -87.27221 31035 ft 444 kts 57°
2026-04-24 01:23 31.76811 -87.21021 31041 ft 444 kts 57°
2026-04-24 01:24 31.80005 -87.14812 31027 ft 445 kts 57°
2026-04-24 01:24 31.83202 -87.08579 31031 ft 444 kts 58°
2026-04-24 01:25 31.86391 -87.02341 31026 ft 444 kts 57°
2026-04-24 01:25 31.89559 -86.96158 31030 ft 444 kts 58°
2026-04-24 01:26 31.92740 -86.89925 31029 ft 444 kts 58°
2026-04-24 01:26 31.95928 -86.83666 31028 ft 444 kts 58°
2026-04-24 01:27 31.99089 -86.77457 31029 ft 444 kts 58°
2026-04-24 01:27 32.02223 -86.71292 31027 ft 444 kts 58°
2026-04-24 01:28 32.05384 -86.65060 31024 ft 444 kts 58°
2026-04-24 01:28 32.08522 -86.58859 31032 ft 444 kts 58°
2026-04-24 01:29 32.11702 -86.52563 31029 ft 444 kts 58°
2026-04-24 01:29 32.14860 -86.46305 31029 ft 444 kts 58°
2026-04-24 01:30 32.18035 -86.40004 31028 ft 444 kts 58°
2026-04-24 01:30 32.21188 -86.33735 31017 ft 444 kts 58°
2026-04-24 01:31 32.24180 -86.28848 31048 ft 443 kts 50°
2026-04-24 01:31 32.28078 -86.23203 31021 ft 442 kts 49°
2026-04-24 01:32 32.31990 -86.17606 31000 ft 442 kts 49°
2026-04-24 01:32 32.35832 -86.12042 31012 ft 443 kts 49°
2026-04-24 01:33 32.39723 -86.06388 31021 ft 442 kts 49°
2026-04-24 01:33 32.43606 -86.00753 31019 ft 442 kts 49°
2026-04-24 01:34 32.47494 -85.95104 31021 ft 442 kts 49°
2026-04-24 01:34 32.51307 -85.89550 31035 ft 442 kts 50°
2026-04-24 01:35 32.55168 -85.83915 31036 ft 442 kts 50°
2026-04-24 01:35 32.59036 -85.78270 31059 ft 442 kts 50°
2026-04-24 01:36 32.62903 -85.72613 31044 ft 442 kts 50°
2026-04-24 01:36 32.66775 -85.66943 31052 ft 442 kts 50°
2026-04-24 01:37 32.70649 -85.61253 31055 ft 442 kts 50°
2026-04-24 01:37 32.74460 -85.55656 31074 ft 442 kts 50°
2026-04-24 01:38 32.78281 -85.50030 31070 ft 442 kts 50°
2026-04-24 01:38 32.82111 -85.44386 31069 ft 442 kts 50°
2026-04-24 01:39 32.85903 -85.38793 31065 ft 442 kts 50°
2026-04-24 01:39 32.89768 -85.33076 31061 ft 442 kts 50°
2026-04-24 01:40 32.93576 -85.27435 31060 ft 442 kts 50°
2026-04-24 01:40 32.97434 -85.21714 31070 ft 442 kts 50°
2026-04-24 01:41 33.01239 -85.16067 31063 ft 442 kts 50°
2026-04-24 01:41 33.05092 -85.10338 31059 ft 442 kts 50°
2026-04-24 01:42 33.08789 -85.04833 31064 ft 442 kts 50°
2026-04-24 01:42 33.12620 -84.99114 31060 ft 442 kts 50°
2026-04-24 01:43 33.16466 -84.93362 31076 ft 442 kts 50°
2026-04-24 01:43 33.20123 -84.87885 31071 ft 441 kts 50°
2026-04-24 01:44 33.23970 -84.82124 31069 ft 441 kts 50°
2026-04-24 01:44 33.27755 -84.76442 31080 ft 441 kts 50°
2026-04-24 01:45 33.31602 -84.70661 31075 ft 441 kts 50°
2026-04-24 01:45 33.35347 -84.65015 31068 ft 441 kts 50°
2026-04-24 01:46 33.39208 -84.59183 31060 ft 441 kts 50°
2026-04-24 01:46 33.43016 -84.53436 31063 ft 440 kts 50°
2026-04-24 01:47 33.46820 -84.47685 31062 ft 440 kts 50°
2026-04-24 01:47 33.50591 -84.41964 31068 ft 440 kts 50°
2026-04-24 01:48 33.54388 -84.36197 31081 ft 440 kts 50°
2026-04-24 01:48 33.58116 -84.30533 31074 ft 439 kts 50°
2026-04-24 01:49 33.61906 -84.24761 31068 ft 439 kts 50°
2026-04-24 01:49 33.65671 -84.19017 31053 ft 440 kts 50°
2026-04-24 01:50 33.69477 -84.13209 31068 ft 439 kts 50°
2026-04-24 01:50 33.73237 -84.07462 31053 ft 439 kts 50°
2026-04-24 01:51 33.77024 -84.01658 31058 ft 439 kts 50°
2026-04-24 01:51 33.80780 -83.95892 31054 ft 439 kts 51°
2026-04-24 01:52 33.84270 -83.90529 31049 ft 439 kts 51°
2026-04-24 01:52 33.88024 -83.84747 31060 ft 439 kts 51°
2026-04-24 01:53 33.91729 -83.78968 31068 ft 439 kts 52°
2026-04-24 01:53 33.95305 -83.73043 31062 ft 439 kts 53°
2026-04-24 01:54 33.98904 -83.67116 31069 ft 439 kts 52°
2026-04-24 01:54 34.02547 -83.61191 31075 ft 439 kts 52°
2026-04-24 01:55 34.06150 -83.55301 31059 ft 439 kts 52°
2026-04-24 01:55 34.09718 -83.49443 31060 ft 440 kts 52°
2026-04-24 01:56 34.13362 -83.43461 31071 ft 440 kts 52°
2026-04-24 01:56 34.16964 -83.37536 31066 ft 440 kts 52°
2026-04-24 01:57 34.20557 -83.31612 31051 ft 440 kts 52°
2026-04-24 01:57 34.24166 -83.25641 31066 ft 440 kts 52°
2026-04-24 01:58 34.27779 -83.19679 31054 ft 440 kts 52°
2026-04-24 01:58 34.31406 -83.13672 31060 ft 440 kts 52°
2026-04-24 01:59 34.34997 -83.07708 31048 ft 440 kts 52°
2026-04-24 01:59 34.38614 -83.01701 31051 ft 441 kts 52°
2026-04-24 02:00 34.42211 -82.95715 31051 ft 440 kts 52°
2026-04-24 02:00 34.45800 -82.89734 31046 ft 441 kts 52°
2026-04-24 02:01 34.49406 -82.83708 31048 ft 441 kts 52°
2026-04-24 02:01 34.53005 -82.77687 31033 ft 441 kts 52°
2026-04-24 02:02 34.56610 -82.71650 31035 ft 441 kts 52°
2026-04-24 02:02 34.60140 -82.65722 31048 ft 441 kts 52°
2026-04-24 02:03 34.65448 -82.56788 31046 ft 441 kts 52°
2026-04-24 02:03 34.69002 -82.50800 31045 ft 441 kts 52°
2026-04-24 02:04 34.72545 -82.44818 31044 ft 441 kts 52°
2026-04-24 02:04 34.76114 -82.38777 31046 ft 441 kts 52°
2026-04-24 02:05 34.79632 -82.32820 31049 ft 441 kts 52°
2026-04-24 02:05 34.83237 -82.26702 31067 ft 441 kts 52°
2026-04-24 02:06 34.86776 -82.20684 31045 ft 441 kts 52°
2026-04-24 02:06 34.90305 -82.14674 31045 ft 441 kts 52°
2026-04-24 02:07 34.93854 -82.08622 31044 ft 441 kts 52°
2026-04-24 02:07 34.97371 -82.02617 31048 ft 441 kts 52°
2026-04-24 02:08 35.00928 -81.96530 31038 ft 441 kts 52°
2026-04-24 02:08 35.04486 -81.90453 31042 ft 441 kts 52°
2026-04-24 02:09 35.08220 -81.84496 31034 ft 440 kts 50°
2026-04-24 02:09 35.11971 -81.78574 31059 ft 440 kts 51°
2026-04-24 02:10 35.15659 -81.72633 31041 ft 440 kts 51°
2026-04-24 02:10 35.18730 -81.67675 31044 ft 440 kts 51°
2026-04-24 02:11 35.22434 -81.61712 31046 ft 440 kts 51°
2026-04-24 02:11 35.26724 -81.54790 31050 ft 440 kts 51°
2026-04-24 02:12 35.29782 -81.49837 31047 ft 440 kts 51°
2026-04-24 02:12 35.33451 -81.43886 31045 ft 440 kts 51°
2026-04-24 02:13 35.37158 -81.37868 31034 ft 440 kts 51°
2026-04-24 02:13 35.40806 -81.31931 31036 ft 440 kts 51°
2026-04-24 02:14 35.44518 -81.25890 31023 ft 440 kts 51°
2026-04-24 02:14 35.48144 -81.19977 31031 ft 440 kts 51°
2026-04-24 02:15 35.51768 -81.14054 31028 ft 440 kts 51°
2026-04-24 02:15 35.55460 -81.08005 31029 ft 440 kts 51°
2026-04-24 02:16 35.59107 -81.02018 31030 ft 440 kts 51°
2026-04-24 02:16 35.62771 -80.95941 31031 ft 441 kts 51°
2026-04-24 02:17 35.66444 -80.89841 31039 ft 441 kts 51°
2026-04-24 02:17 35.70041 -80.83868 31040 ft 441 kts 51°
2026-04-24 02:18 35.73709 -80.77759 31036 ft 441 kts 51°
2026-04-24 02:18 35.77360 -80.71677 31033 ft 441 kts 51°
2026-04-24 02:19 35.80994 -80.65606 31033 ft 441 kts 51°
2026-04-24 02:19 35.84606 -80.59552 31036 ft 441 kts 51°
2026-04-24 02:20 35.88231 -80.53486 31038 ft 441 kts 51°
2026-04-24 02:20 35.91826 -80.47448 31015 ft 441 kts 51°
2026-04-24 02:21 35.95456 -80.41346 31019 ft 441 kts 51°
2026-04-24 02:21 35.99089 -80.35230 31018 ft 441 kts 51°
2026-04-24 02:22 36.02717 -80.29143 31019 ft 441 kts 51°
2026-04-24 02:22 36.06340 -80.23050 31020 ft 441 kts 51°
2026-04-24 02:23 36.09889 -80.17080 31018 ft 441 kts 51°
2026-04-24 02:23 36.13555 -80.10895 31001 ft 441 kts 51°
2026-04-24 02:24 36.17150 -80.04814 31009 ft 442 kts 51°
2026-04-24 02:24 36.20756 -79.98707 31011 ft 441 kts 51°
2026-04-24 02:25 36.24379 -79.92565 31009 ft 441 kts 51°
2026-04-24 02:25 36.28007 -79.86402 31011 ft 442 kts 51°
2026-04-24 02:26 36.31576 -79.80325 31010 ft 441 kts 51°
2026-04-24 02:26 36.35168 -79.74198 31008 ft 442 kts 51°
2026-04-24 02:27 36.38724 -79.68125 31010 ft 442 kts 51°
2026-04-24 02:27 36.42338 -79.61948 31011 ft 442 kts 51°
2026-04-24 02:28 36.45849 -79.55924 31020 ft 442 kts 51°
2026-04-24 02:28 36.49451 -79.49736 31004 ft 442 kts 51°
2026-04-24 02:29 36.53063 -79.43529 30995 ft 442 kts 51°
2026-04-24 02:29 36.56652 -79.37341 30984 ft 442 kts 51°
2026-04-24 02:30 36.60244 -79.31135 30992 ft 443 kts 51°
2026-04-24 02:30 36.63820 -79.24952 30993 ft 443 kts 51°
2026-04-24 02:31 36.67410 -79.18725 30990 ft 443 kts 51°
2026-04-24 02:31 36.70999 -79.12496 30990 ft 443 kts 52°
2026-04-24 02:32 36.74596 -79.06239 30991 ft 443 kts 51°
2026-04-24 02:32 36.78163 -79.00020 30989 ft 443 kts 51°
2026-04-24 02:33 36.81748 -78.93768 30990 ft 443 kts 52°
2026-04-24 02:33 36.85318 -78.87490 30989 ft 443 kts 52°
2026-04-24 02:34 36.88817 -78.81298 30976 ft 443 kts 52°
2026-04-24 02:34 36.92397 -78.74968 30978 ft 444 kts 52°
2026-04-24 02:35 36.95942 -78.68692 30983 ft 444 kts 52°
2026-04-24 02:35 36.99481 -78.62411 30981 ft 444 kts 52°
2026-04-24 02:36 37.03020 -78.56115 30984 ft 444 kts 52°
2026-04-24 02:36 37.06555 -78.49821 30972 ft 444 kts 52°
2026-04-24 02:37 37.10110 -78.43477 30972 ft 444 kts 52°
2026-04-24 02:37 37.13654 -78.37143 30972 ft 445 kts 52°
2026-04-24 02:38 37.17201 -78.30786 30971 ft 445 kts 52°
2026-04-24 02:38 37.20733 -78.24449 30973 ft 445 kts 51°
2026-04-24 02:39 37.24441 -78.18262 30972 ft 444 kts 49°
2026-04-24 02:39 37.28218 -78.12105 30974 ft 444 kts 50°
2026-04-24 02:40 37.31916 -78.05920 30972 ft 445 kts 50°
2026-04-24 02:40 37.35626 -77.99704 30971 ft 445 kts 50°
2026-04-24 02:41 37.39341 -77.93485 30960 ft 444 kts 50°
2026-04-24 02:41 37.43048 -77.87269 30952 ft 444 kts 50°
2026-04-24 02:42 37.46708 -77.81111 30963 ft 444 kts 50°
2026-04-24 02:42 37.50329 -77.75015 30962 ft 444 kts 50°
2026-04-24 02:43 37.54694 -77.69661 30988 ft 435 kts 31°
2026-04-24 02:43 37.59609 -77.65598 30948 ft 433 kts 28°
2026-04-24 02:44 37.64714 -77.61534 30962 ft 434 kts 28°
2026-04-24 02:44 37.69580 -77.57590 30962 ft 434 kts 29°
2026-04-24 02:45 37.74619 -77.53482 30963 ft 434 kts 29°
2026-04-24 02:45 37.79742 -77.49320 30963 ft 434 kts 29°
2026-04-24 02:46 37.84826 -77.45193 30947 ft 434 kts 29°
2026-04-24 02:46 37.89908 -77.41047 30966 ft 434 kts 29°
2026-04-24 02:47 37.94883 -77.36987 30959 ft 433 kts 29°
2026-04-24 02:47 37.99926 -77.32860 30937 ft 433 kts 29°
2026-04-24 02:48 38.04956 -77.28747 30941 ft 433 kts 28°
2026-04-24 02:48 38.10019 -77.24601 30933 ft 432 kts 28°
2026-04-24 02:49 38.15041 -77.20486 30939 ft 432 kts 28°
2026-04-24 02:49 38.20094 -77.16331 30940 ft 431 kts 28°
2026-04-24 02:50 38.25117 -77.12194 30951 ft 430 kts 28°
2026-04-24 02:50 38.30094 -77.08082 30936 ft 431 kts 29°
2026-04-24 02:51 38.34901 -77.03494 30934 ft 434 kts 33°
2026-04-24 02:51 38.39601 -76.98784 30934 ft 432 kts 32°
2026-04-24 02:52 38.43596 -76.94941 30939 ft 432 kts 32°
2026-04-24 02:52 38.48399 -76.90340 30928 ft 431 kts 32°
2026-04-24 02:53 38.53131 -76.85769 30937 ft 431 kts 32°
2026-04-24 02:53 38.57883 -76.81158 30954 ft 430 kts 32°
2026-04-24 02:54 38.62545 -76.76636 30938 ft 430 kts 32°
2026-04-24 02:54 38.67323 -76.71996 30931 ft 430 kts 32°
2026-04-24 02:55 38.71844 -76.67599 30936 ft 429 kts 32°
2026-04-24 02:55 38.76620 -76.62944 30934 ft 429 kts 32°
2026-04-24 02:56 38.81348 -76.58323 30938 ft 429 kts 31°
2026-04-24 02:56 38.86105 -76.53672 30950 ft 429 kts 31°
2026-04-24 02:57 38.90563 -76.49297 30947 ft 429 kts 31°
2026-04-24 02:57 38.95389 -76.44559 30947 ft 429 kts 31°
2026-04-24 02:58 39.00059 -76.39969 30946 ft 428 kts 31°
2026-04-24 02:58 39.04771 -76.35253 30945 ft 431 kts 34°
2026-04-24 02:59 39.09038 -76.30121 30922 ft 433 kts 37°
2026-04-24 02:59 39.11200 -76.27465 30611 ft 426 kts 37°
2026-04-24 02:59 39.13336 -76.24924 30399 ft 410 kts 36°
2026-04-24 03:00 39.15435 -76.22482 29801 ft 407 kts 35°
2026-04-24 03:00 39.17308 -76.20330 29325 ft 405 kts 35°
2026-04-24 03:00 39.19544 -76.17753 28721 ft 409 kts 35°
2026-04-24 03:00 39.21637 -76.15320 28197 ft 414 kts 36°
2026-04-24 03:01 39.23777 -76.12811 27668 ft 416 kts 36°
2026-04-24 03:01 39.25942 -76.10260 27093 ft 418 kts 36°
2026-04-24 03:01 39.28096 -76.07723 26811 ft 418 kts 36°
2026-04-24 03:01 39.30221 -76.05223 26489 ft 419 kts 36°
2026-04-24 03:02 39.32330 -76.02742 26319 ft 421 kts 36°
2026-04-24 03:02 39.34517 -76.00175 26106 ft 421 kts 36°
2026-04-24 03:02 39.36696 -75.97614 25832 ft 424 kts 36°
2026-04-24 03:02 39.38582 -75.95389 25701 ft 421 kts 35°
2026-04-24 03:03 39.40740 -75.92841 25424 ft 423 kts 35°
2026-04-24 03:03 39.42904 -75.90292 25229 ft 429 kts 35°
2026-04-24 03:03 39.45123 -75.87670 24993 ft 425 kts 35°
2026-04-24 03:03 39.47301 -75.85086 24729 ft 425 kts 35°
2026-04-24 03:04 39.49476 -75.82508 24562 ft 422 kts 35°
2026-04-24 03:04 39.51607 -75.79984 24293 ft 422 kts 35°
2026-04-24 03:04 39.53789 -75.77395 24080 ft 421 kts 35°
2026-04-24 03:04 39.55951 -75.74827 23899 ft 418 kts 35°
2026-04-24 03:05 39.58009 -75.72383 23623 ft 418 kts 35°
2026-04-24 03:05 39.60243 -75.69726 23435 ft 416 kts 35°
2026-04-24 03:05 39.62381 -75.67183 23201 ft 414 kts 35°
2026-04-24 03:05 39.64485 -75.64678 22954 ft 414 kts 35°
2026-04-24 03:06 39.66567 -75.62195 22779 ft 411 kts 35°
2026-04-24 03:06 39.68674 -75.59682 22296 ft 412 kts 35°
2026-04-24 03:06 39.70745 -75.57194 21929 ft 406 kts 35°
2026-04-24 03:06 39.72795 -75.54718 21293 ft 406 kts 35°
2026-04-24 03:07 39.74807 -75.52284 20790 ft 399 kts 35°
2026-04-24 03:07 39.76789 -75.49890 20295 ft 394 kts 35°
2026-04-24 03:07 39.78605 -75.47699 19777 ft 393 kts 35°
2026-04-24 03:07 39.80470 -75.45452 19338 ft 389 kts 35°
2026-04-24 03:08 39.82433 -75.43087 18787 ft 387 kts 35°
2026-04-24 03:08 39.86347 -75.38349 17810 ft 379 kts 35°
2026-04-24 03:08 39.88241 -75.36052 17271 ft 378 kts 35°
2026-04-24 03:09 39.90158 -75.33729 16901 ft 372 kts 35°
2026-04-24 03:09 39.92030 -75.31459 16365 ft 373 kts 35°
2026-04-24 03:09 39.93854 -75.29246 15915 ft 367 kts 35°
2026-04-24 03:09 39.95755 -75.26936 15389 ft 364 kts 35°
2026-04-24 03:10 39.97502 -75.24811 14941 ft 361 kts 35°
2026-04-24 03:10 39.99341 -75.22568 14477 ft 353 kts 35°
2026-04-24 03:10 40.01092 -75.20428 13987 ft 346 kts 35°
2026-04-24 03:10 40.02828 -75.18308 13553 ft 338 kts 34°
2026-04-24 03:11 40.04509 -75.16258 13111 ft 331 kts 34°
2026-04-24 03:11 40.06193 -75.14207 12665 ft 324 kts 34°
2026-04-24 03:11 40.07812 -75.12230 12247 ft 319 kts 34°
2026-04-24 03:11 40.09327 -75.10381 11851 ft 313 kts 34°
2026-04-24 03:12 40.10903 -75.08451 11445 ft 308 kts 34°
2026-04-24 03:12 40.12447 -75.06557 11125 ft 301 kts 34°
2026-04-24 03:12 40.13950 -75.04713 10807 ft 294 kts 34°
2026-04-24 03:12 40.15276 -75.03089 10544 ft 289 kts 34°
2026-04-24 03:13 40.16823 -75.01205 10355 ft 287 kts 34°
2026-04-24 03:13 40.18270 -74.99455 10069 ft 293 kts 35°
2026-04-24 03:13 40.19773 -74.97617 9871 ft 293 kts 36°
2026-04-24 03:13 40.21259 -74.95782 9588 ft 294 kts 36°
2026-04-24 03:14 40.22705 -74.93987 9396 ft 292 kts 37°
2026-04-24 03:14 40.24169 -74.92180 9105 ft 293 kts 37°
2026-04-24 03:14 40.25615 -74.90404 8766 ft 293 kts 37°
2026-04-24 03:14 40.27068 -74.88523 8494 ft 291 kts 41°
2026-04-24 03:15 40.28433 -74.86562 8216 ft 290 kts 43°
2026-04-24 03:15 40.29678 -74.84693 8111 ft 285 kts 44°
2026-04-24 03:15 40.31056 -74.82677 7939 ft 287 kts 42°
2026-04-24 03:15 40.32351 -74.80852 8000 ft 287 kts 41°
2026-04-24 03:16 40.33730 -74.78939 7976 ft 289 kts 41°
2026-04-24 03:16 40.35108 -74.77037 7981 ft 288 kts 41°
2026-04-24 03:16 40.36476 -74.75133 7982 ft 287 kts 42°
2026-04-24 03:16 40.37828 -74.73231 7979 ft 288 kts 42°
2026-04-24 03:17 40.39185 -74.71306 7978 ft 288 kts 42°
2026-04-24 03:17 40.40513 -74.69417 7978 ft 287 kts 42°
2026-04-24 03:17 40.41876 -74.67484 7992 ft 287 kts 46°
2026-04-24 03:17 40.42867 -74.65160 7828 ft 300 kts 63°
2026-04-24 03:18 40.43641 -74.62632 7407 ft 302 kts 64°
2026-04-24 03:18 40.44247 -74.60021 7005 ft 302 kts 73°
2026-04-24 03:18 40.44704 -74.57348 6609 ft 300 kts 74°
2026-04-24 03:18 40.45143 -74.54806 6228 ft 298 kts 74°
2026-04-24 03:19 40.45602 -74.52149 5831 ft 295 kts 73°
2026-04-24 03:19 40.46041 -74.49976 5494 ft 288 kts 69°
2026-04-24 03:19 40.46687 -74.47583 5101 ft 270 kts 65°
2026-04-24 03:19 40.47329 -74.45398 4730 ft 257 kts 65°
2026-04-24 03:20 40.47928 -74.43234 4358 ft 246 kts 67°
2026-04-24 03:20 40.48437 -74.41137 4018 ft 237 kts 69°
2026-04-24 03:20 40.48875 -74.39151 3731 ft 224 kts 70°
2026-04-24 03:20 40.49295 -74.37234 3493 ft 213 kts 69°
2026-04-24 03:21 40.49722 -74.35385 3214 ft 204 kts 69°
2026-04-24 03:21 40.50134 -74.33660 2968 ft 196 kts 68°
2026-04-24 03:21 40.50530 -74.32011 2945 ft 179 kts 68°
2026-04-24 03:21 40.50893 -74.30480 2991 ft 177 kts 68°
2026-04-24 03:22 40.51434 -74.29027 3094 ft 179 kts 44°
2026-04-24 03:22 40.52228 -74.27881 3097 ft 178 kts 47°
2026-04-24 03:22 40.53010 -74.26701 2911 ft 178 kts 28°
2026-04-24 03:22 40.54115 -74.26104 2930 ft 166 kts 15°
2026-04-24 03:23 40.55202 -74.25457 2951 ft 177 kts 25°
2026-04-24 03:23 40.56300 -74.24691 2535 ft 178 kts 22°
2026-04-24 03:23 40.57314 -74.24062 2308 ft 171 kts 23°
2026-04-24 03:23 40.58352 -74.23430 2073 ft 165 kts 24°
2026-04-24 03:24 40.59324 -74.22807 1881 ft 162 kts 27°
2026-04-24 03:24 40.60327 -74.22159 1690 ft 162 kts 27°
2026-04-24 03:24 40.61348 -74.21510 1463 ft 160 kts 28°
2026-04-24 03:24 40.62321 -74.20893 1276 ft 148 kts 25°
2026-04-24 03:25 40.63206 -74.20334 1045 ft 139 kts 26°
2026-04-24 03:25 40.63921 -74.19875 952 ft 143 kts 26°
2026-04-24 03:25 40.64835 -74.19293 713 ft 149 kts 25°
2026-04-24 03:25 40.65741 -74.18717 570 ft 141 kts 25°
2026-04-24 03:26 40.66624 -74.18155 346 ft 142 kts 25°
2026-04-24 03:26 40.67480 -74.17607 184 ft 137 kts 25°
2026-04-24 03:26 40.68319 -74.17070 22 ft 130 kts 26°
2026-04-24 03:26 40.69012 -74.16627 20 ft 88 kts 24°
2026-04-24 03:27 40.69428 -74.16364 22 ft 45 kts 24°
2026-04-24 03:27 40.69582 -74.16293 20 ft 18 kts
2026-04-24 03:27 40.69662 -74.16296 21 ft 8 kts 354°
2026-04-24 03:27 40.69708 -74.16305 19 ft 8 kts 340°
2026-04-24 03:28 40.69732 -74.16367 19 ft 9 kts 268°
2026-04-24 03:28 40.69734 -74.16409 19 ft 0 kts 275°